Weather History for Cherokee, IA

Change the Weather History Date:

Tuesday, November 6, 2012

  Actual Average Record
Temperature  
Mean Temperature 44 °F -  
Max Temperature 50 °F 48 °F 74 °F (1975)
Min Temperature 38 °F 27 °F 0 °F (1959)
Degree Days  
Heating Degree Days 21    
Moisture  
Dew Point 36 °F    
Average Humidity 74    
Maximum Humidity 95    
Minimum Humidity 54    
Precipitation  
Precipitation 0.00 in - - ()
Sea Level Pressure  
Sea Level Pressure 29.95 in    
Wind  
Wind Speed 13 mph (WNW)    
Max Wind Speed 22 mph    
Max Gust Speed 31 mph    
Visibility 9 miles    
Events Rain    
Averages and records for this station are not official NWS values.
T = Trace of Precipitation, MM = Missing Value Source: NWS Daily Summary

Daily Weather History Graph

Daily Weather History Graph

Search for Another Location

Airport:

Trip Planner

Search our weather history database for the weather conditions in past years. The results will help you decide how hot, cold, wet, or windy it might be!

Date:

Astronomy

Nov. 06, 2012 Rise Set
Actual Time 7:03 AM CST 5:07 PM CST
Civil Twilight 6:33 AM CST 5:37 PM CST
Nautical Twilight 5:59 AM CST 6:11 PM CST
Astronomical Twilight 5:26 AM CST 6:44 PM CST
Moon 11:49 PM CST (11/6) 12:54 PM CST (11/6)
Length of Visible Light 11h 04m
Length of Day
10h 04m
Waning Gibbous, 53% of the Moon is Illuminated
Nov 6
Waning Gibbous
Nov 6
Last Quarter
Nov 13
New
Nov 20
First Quarter
Nov 28
Full

Hourly Weather History & Observations

Time (CST) Temp. Windchill Dew Point Humidity Pressure Visibility Wind Dir Wind Speed Gust Speed Precip Events Conditions
12:15 AM 39.2 °F 32.0 °F 37.4 °F 93% 29.97 in 5.0 mi South 11.5 mph - N/A   Overcast
12:35 AM 39.2 °F 31.6 °F 37.6 °F 94% 29.96 in 5.0 mi South 12.7 mph - N/A   Overcast
12:55 AM 39.4 °F 31.8 °F 37.9 °F 95% 29.98 in 4.0 mi SSW 12.7 mph - N/A   Overcast
1:15 AM 39.4 °F 31.8 °F 37.9 °F 95% 29.96 in 5.0 mi SSW 12.7 mph 17.3 mph N/A   Overcast
1:35 AM 39.4 °F 31.4 °F 37.9 °F 95% 29.94 in 5.0 mi SSW 13.8 mph - N/A Rain Light Rain
1:55 AM 39.4 °F 31.8 °F 37.9 °F 95% 29.92 in 5.0 mi South 12.7 mph 23.0 mph N/A   Overcast
2:15 AM 39.4 °F 31.8 °F 37.9 °F 95% 29.91 in 5.0 mi SSW 12.7 mph - N/A Rain Light Rain
2:35 AM 39.6 °F 32.1 °F 38.3 °F 95% 29.92 in 7.0 mi SSW 12.7 mph 17.3 mph N/A Rain Light Rain
2:55 AM 39.6 °F 31.3 °F 38.1 °F 95% 29.90 in 7.0 mi SSW 15.0 mph 18.4 mph N/A   Overcast
3:15 AM 39.6 °F 30.3 °F 37.9 °F 94% 29.88 in 7.0 mi SSW 18.4 mph - N/A   Overcast
3:35 AM 39.6 °F 32.1 °F 37.8 °F 93% 29.89 in 7.0 mi SW 12.7 mph - N/A   Overcast
3:55 AM 39.6 °F 31.3 °F 37.4 °F 92% 29.88 in 7.0 mi SW 15.0 mph 19.6 mph N/A   Overcast
4:15 AM 38.8 °F 30.4 °F 37.0 °F 93% 29.86 in 7.0 mi SSW 15.0 mph 19.6 mph N/A   Mostly Cloudy
4:35 AM 38.8 °F 31.6 °F 37.0 °F 93% 29.87 in 7.0 mi SW 11.5 mph 18.4 mph N/A   Mostly Cloudy
4:55 AM 39.2 °F 33.0 °F 37.0 °F 92% 29.87 in 7.0 mi SW 9.2 mph - N/A   Overcast
5:15 AM 39.2 °F 33.0 °F 37.4 °F 93% 29.87 in 7.0 mi WSW 9.2 mph - N/A   Overcast
5:35 AM 39.6 °F 33.0 °F 37.4 °F 92% 29.87 in 7.0 mi WSW 10.4 mph - N/A   Overcast
6:15 AM 39.2 °F 35.9 °F 36.9 °F 91% 29.87 in 10.0 mi WNW 4.6 mph - N/A   Scattered Clouds
6:35 AM 38.7 °F 32.9 °F 36.5 °F 92% 29.89 in 10.0 mi WNW 8.1 mph - N/A   Clear
6:55 AM 39.2 °F 31.6 °F 36.9 °F 91% 29.89 in 10.0 mi NW 12.7 mph 18.4 mph N/A   Clear
7:15 AM 39.4 °F 32.3 °F 37.0 °F 91% 29.91 in 10.0 mi NW 11.5 mph 20.7 mph N/A   Clear
7:35 AM 39.6 °F 32.1 °F 36.9 °F 90% 29.92 in 10.0 mi WNW 12.7 mph 17.3 mph N/A   Clear
7:55 AM 40.1 °F 32.4 °F 37.0 °F 89% 29.94 in 10.0 mi NW 13.8 mph 17.3 mph N/A   Clear
8:15 AM 40.6 °F 34.8 °F 36.9 °F 86% 29.94 in 10.0 mi NW 9.2 mph - N/A   Clear
8:35 AM 41.5 °F 34.2 °F 36.5 °F 82% 29.95 in 10.0 mi NW 13.8 mph 19.6 mph N/A   Clear
8:55 AM 42.1 °F 35.2 °F 36.3 °F 80% 29.95 in 10.0 mi NW 12.7 mph 19.6 mph N/A   Clear
9:15 AM 42.8 °F 35.4 °F 36.5 °F 78% 29.95 in 10.0 mi NW 15.0 mph 21.9 mph N/A   Clear
9:35 AM 43.7 °F 36.3 °F 36.3 °F 75% 29.95 in 10.0 mi NW 16.1 mph 23.0 mph N/A   Clear
9:55 AM 44.2 °F 37.3 °F 36.0 °F 73% 29.96 in 10.0 mi NW 15.0 mph 26.5 mph N/A   Scattered Clouds
10:15 AM 44.6 °F 37.4 °F 35.8 °F 71% 29.96 in 10.0 mi NW 16.1 mph 25.3 mph N/A   Scattered Clouds
10:35 AM 45.5 °F 38.1 °F 36.0 °F 69% 29.96 in 10.0 mi NW 18.4 mph 28.8 mph N/A   Scattered Clouds
10:55 AM 45.9 °F 38.8 °F 35.8 °F 68% 29.96 in 10.0 mi NW 17.3 mph 28.8 mph N/A   Overcast
11:15 AM 46.8 °F - 35.6 °F 65% 29.96 in 10.0 mi NW 18.4 mph 24.2 mph N/A   Mostly Cloudy
11:35 AM 47.7 °F - 35.4 °F 63% 29.94 in 10.0 mi NNW 17.3 mph 25.3 mph N/A   Scattered Clouds
11:55 AM 48.7 °F - 35.6 °F 60% 29.94 in 10.0 mi NW 18.4 mph 31.1 mph N/A   Clear
12:15 PM 48.7 °F - 34.9 °F 59% 29.94 in 10.0 mi NW 16.1 mph 27.6 mph N/A   Clear
12:35 PM 50.0 °F - 35.8 °F 58% 29.93 in 10.0 mi NW 17.3 mph 25.3 mph N/A   Scattered Clouds
12:55 PM 50.4 °F - 36.0 °F 58% 29.93 in 10.0 mi NW 20.7 mph 29.9 mph N/A   Mostly Cloudy
1:15 PM 49.8 °F - 35.1 °F 57% 29.93 in 10.0 mi NW 15.0 mph 28.8 mph N/A   Mostly Cloudy
1:35 PM 50.0 °F - 35.6 °F 58% 29.93 in 10.0 mi NW 17.3 mph 28.8 mph N/A   Mostly Cloudy
1:55 PM 50.0 °F - 35.6 °F 58% 29.93 in 10.0 mi NNW 20.7 mph 29.9 mph N/A   Overcast
2:15 PM 50.0 °F - 34.7 °F 56% 29.94 in 10.0 mi NNW 20.7 mph 29.9 mph N/A   Mostly Cloudy
2:35 PM 50.0 °F - 34.7 °F 56% 29.94 in 10.0 mi NW 15.0 mph 23.0 mph N/A   Overcast
2:55 PM 49.3 °F - 34.7 °F 57% 29.95 in 10.0 mi NNW 15.0 mph 24.2 mph N/A   Overcast
3:15 PM 49.5 °F - 33.6 °F 54% 29.95 in 10.0 mi NW 21.9 mph 28.8 mph N/A   Overcast
3:35 PM 49.1 °F - 34.5 °F 57% 29.95 in 10.0 mi NW 17.3 mph 31.1 mph N/A   Overcast
3:55 PM 48.9 °F - 34.9 °F 58% 29.96 in 10.0 mi NNW 16.1 mph 27.6 mph N/A   Overcast
4:15 PM 48.4 °F - 33.8 °F 57% 29.96 in 10.0 mi NNW 18.4 mph 29.9 mph N/A   Mostly Cloudy
4:35 PM 48.2 °F - 33.8 °F 58% 29.97 in 10.0 mi NW 15.0 mph 26.5 mph N/A   Overcast
4:55 PM 48.0 °F - 33.8 °F 58% 29.98 in 10.0 mi NNW 15.0 mph 25.3 mph N/A   Overcast
5:15 PM 47.5 °F - 34.7 °F 61% 29.99 in 10.0 mi NW 10.4 mph 16.1 mph N/A   Overcast
5:35 PM 47.3 °F - 34.3 °F 61% 29.99 in 10.0 mi NNW 11.5 mph 20.7 mph N/A   Overcast
5:55 PM 47.3 °F - 34.5 °F 61% 30.00 in 10.0 mi NNW 11.5 mph 17.3 mph N/A   Overcast
6:15 PM 46.6 °F - 34.9 °F 64% 30.00 in 10.0 mi NNW 11.5 mph - N/A   Overcast
6:35 PM 46.6 °F - 34.9 °F 64% 30.01 in 10.0 mi NNW 10.4 mph 18.4 mph N/A   Overcast
6:55 PM 46.4 °F 41.9 °F 35.1 °F 65% 30.01 in 10.0 mi NNW 9.2 mph - N/A   Overcast
7:15 PM 46.4 °F 40.4 °F 33.8 °F 62% 30.01 in 10.0 mi NNW 13.8 mph 19.6 mph N/A   Overcast
7:35 PM 46.0 °F 41.0 °F 33.8 °F 62% 30.01 in 10.0 mi NW 10.4 mph - N/A   Overcast
7:55 PM 45.7 °F 41.5 °F 34.3 °F 65% 30.01 in 10.0 mi NW 8.1 mph - N/A   Overcast
8:15 PM 45.5 °F 41.8 °F 34.7 °F 66% 30.01 in 10.0 mi NNW 6.9 mph - N/A   Overcast
8:35 PM 45.1 °F 41.4 °F 34.3 °F 66% 30.01 in 10.0 mi NW 6.9 mph - N/A   Overcast
8:55 PM 44.8 °F 41.0 °F 34.5 °F 67% 30.01 in 10.0 mi WNW 6.9 mph - N/A   Overcast
9:15 PM 43.7 °F 39.1 °F 34.5 °F 70% 30.01 in 10.0 mi WNW 8.1 mph - N/A   Overcast
9:35 PM 43.7 °F 38.1 °F 34.2 °F 69% 30.01 in 10.0 mi NW 10.4 mph 16.1 mph N/A   Overcast
9:55 PM 43.9 °F 38.3 °F 34.0 °F 68% 30.01 in 10.0 mi NW 10.4 mph - N/A   Overcast
10:15 PM 43.7 °F 38.1 °F 34.3 °F 70% 30.02 in 10.0 mi NW 10.4 mph - N/A   Overcast
10:35 PM 43.7 °F 37.3 °F 34.0 °F 69% 30.02 in 10.0 mi NNW 12.7 mph 18.4 mph N/A   Overcast
10:55 PM 43.2 °F 37.0 °F 34.0 °F 70% 30.02 in 10.0 mi NNW 11.5 mph 16.1 mph N/A   Overcast
11:15 PM 42.3 °F 36.8 °F 34.0 °F 72% 30.03 in 10.0 mi NNW 9.2 mph 17.3 mph N/A   Overcast
11:35 PM 42.1 °F 36.6 °F 34.2 °F 74% 30.04 in 10.0 mi NNW 9.2 mph - N/A   Overcast
11:55 PM 41.4 °F 35.7 °F 34.0 °F 75% 30.04 in 10.0 mi NNW 9.2 mph - N/A   Overcast